FW8987 Weather Reports


time (UTC)temp
F
wind
direction
speed
knots
gust
knots
rain 1hr
in
rain 24hr
in
rain mn
in
humidity
%
barometer
mb
20260507065031 44 147 0.9 1.7 0.00 0.00 0.00 69 1015.7
20260507064026 43 166 0.0 0.9 0.00 0.00 0.00 73 1015.4
20260507063021 42 130 0.9 1.7 0.00 0.00 0.00 76 1015.3
20260507062017 42 182 0.9 1.7 0.00 0.00 0.00 78 1015.3
20260507061033 41 205 0.0 0.9 0.00 0.00 0.00 79 1015.1
20260507060027 41 210 0.0 0.9 0.00 0.00 0.00 79 1015.0
20260507055022 39 204 0.0 0.9 0.00 0.00 0.00 81 1014.9
20260507054019 39 203 0.0 0.9 0.00 0.00 0.00 81 1015.0
20260507053034 39 212 0.0 1.7 0.00 0.00 0.00 81 1014.9
20260507052029 39 222 0.9 1.7 0.00 0.00 0.00 82 1014.9
20260507051024 39 211 0.9 1.7 0.00 0.00 0.00 82 1014.8
20260507050039 39 172 0.9 0.9 0.00 0.00 0.00 82 1014.7
20260507045035 38 222 0.0 0.9 0.00 0.00 0.00 85 1014.7
20260507044030 38 233 0.9 1.7 0.00 0.00 0.00 87 1014.7
20260507043025 37 244 1.7 2.6 0.00 0.00 0.00 88 1014.5
20260507042020 37 172 0.9 1.7 0.00 0.00 0.00 89 1014.3
20260507041036 36 231 1.7 3.5 0.00 0.00 0.00 88 1014.7
20260507040031 36 233 0.9 1.7 0.00 0.00 0.00 89 1014.2
20260507035027 36 149 1.7 2.6 0.00 0.00 0.00 88 1014.3
20260507034022 36 152 0.9 1.7 0.00 0.00 0.00 87 1014.4
20260507033017 35 133 0.9 1.7 0.00 0.00 0.00 87 1014.6
20260507032032 35 209 0.9 1.7 0.00 0.00 0.00 88 1014.8
20260507031047 35 211 0.9 1.7 0.00 0.00 0.00 87 1014.6
20260507030042 35 214 0.9 1.7 0.00 0.00 0.00 86 1014.3
20260507025017 34 201 0.0 0.9 0.00 0.00 0.00 89 1014.2
20260507024033 33 0.0 0.0 0.00 0.00 0.00 89 1014.3
20260507023029 33 0.0 0.0 0.00 0.00 0.00 88 1014.3
20260507022023 33 184 0.0 0.9 0.00 0.00 0.00 87 1014.2
20260507021018 34 208 0.0 0.9 0.00 0.00 0.00 87 1014.2
20260507020034 33 214 0.0 0.9 0.00 0.00 0.00 88 1014.3
20260507015029 33 0.0 0.0 0.00 0.00 0.00 88 1014.3
20260507014024 33 0.0 0.0 0.00 0.00 0.00 87 1014.1
20260507013040 33 183 0.0 0.9 0.00 0.00 0.00 86 1014.1
20260507012055 33 217 0.0 0.9 0.00 0.00 0.00 87 1014.1
20260507011030 33 225 0.9 1.7 0.00 0.00 0.00 89 1014.0
20260507010025 32 0.0 0.0 0.00 0.00 0.00 87 1013.9
20260507005020 32 0.0 0.0 0.00 0.00 0.00 84 1013.8
20260507004035 33 0.0 0.0 0.00 0.00 0.00 84 1013.7
20260507003030 35 166 0.0 0.9 0.00 0.00 0.00 80 1013.7
20260507002025 35 0.0 0.0 0.00 0.00 0.00 80 1013.8
20260507001021 36 0.0 0.0 0.00 0.00 0.00 77 1013.9
20260507000015 37 0.0 0.0 0.00 0.00 0.00 75 1013.8
20260506235031 38 188 0.0 0.9 0.00 0.00 0.00 73 1013.8
20260506234047 39 0.0 0.0 0.00 0.00 0.00 69 1013.7
20260506233042 39 0.0 0.0 0.00 0.00 0.00 69 1013.7
20260506232017 40 202 0.0 0.9 0.00 0.00 0.00 65 1013.5
20260506231032 40 179 0.0 0.9 0.00 0.00 0.00 66 1013.4
20260506230108 41 211 0.9 2.6 0.00 0.00 0.00 62 1013.3
20260506225103 40 194 0.9 2.6 0.00 0.00 0.00 64 1013.2
20260506224018 42 203 0.9 1.7 0.00 0.00 0.00 62 1013.2
20260506223034 42 230 1.7 5.2 0.00 0.00 0.00 63 1013.2
20260506222029 41 223 0.9 2.6 0.00 0.00 0.00 63 1012.8
20260506221025 41 187 0.0 0.9 0.00 0.00 0.00 63 1012.5
20260506220040 42 183 0.9 2.6 0.00 0.00 0.00 62 1012.5
20260506215035 42 183 0.0 0.9 0.00 0.00 0.00 60 1012.6
20260506214031 42 209 0.9 1.7 0.00 0.00 0.00 60 1012.5
20260506213048 43 177 0.9 1.7 0.00 0.00 0.00 59 1012.5
20260506212021 42 211 0.0 0.9 0.00 0.00 0.00 61 1012.3
20260506211017 42 0.0 0.0 0.00 0.00 0.00 62 1012.2
20260506210033 42 188 0.0 0.9 0.00 0.00 0.00 64 1012.3
20260506205028 43 182 0.0 0.9 0.00 0.00 0.00 61 1012.2
20260506204023 43 217 0.9 0.9 0.00 0.00 0.00 60 1012.0
20260506203019 41 203 0.0 0.9 0.00 0.00 0.00 68 1012.1
20260506202034 42 169 0.9 1.7 0.00 0.00 0.00 65 1012.1
20260506201030 43 190 0.9 1.7 0.00 0.00 0.00 62 1012.3
20260506200025 43 224 0.9 1.7 0.00 0.00 0.00 65 1012.1
20260506195039 43 205 0.0 0.9 0.00 0.00 0.00 64 1012.2
20260506194015 43 0.0 0.0 0.00 0.00 0.00 63 1012.0
20260506193031 44 0.0 0.0 0.00 0.00 0.00 62 1012.2
20260506192026 45 177 0.0 0.9 0.00 0.00 0.00 60 1012.3
20260506191021 45 179 0.0 0.9 0.00 0.00 0.00 62 1012.3
20260506190017 46 127 0.9 2.6 0.00 0.00 0.00 60 1012.2
20260506185032 46 186 0.0 1.7 0.00 0.00 0.00 61 1012.2
20260506184028 46 169 0.0 1.7 0.00 0.00 0.00 58 1012.1
20260506183023 46 164 0.0 1.7 0.00 0.00 0.00 60 1012.1
20260506182018 47 143 0.9 1.7 0.00 0.00 0.00 60 1012.1
20260506181034 47 176 0.0 0.9 0.00 0.00 0.00 59 1011.9
20260506180050 47 155 0.9 2.6 0.00 0.00 0.00 59 1011.9
20260506175025 47 133 0.9 3.5 0.00 0.00 0.00 58 1012.0
20260506174039 48 151 0.9 2.6 0.00 0.00 0.00 57 1012.0
20260506173035 48 156 1.7 3.5 0.00 0.00 0.00 57 1011.9
20260506172029 48 131 1.7 3.5 0.00 0.00 0.00 56 1012.0
20260506171145 48 100 1.7 3.5 0.00 0.00 0.00 55 1011.9
20260506170019 49 156 1.7 3.5 0.00 0.00 0.00 54 1011.9
20260506165036 50 150 1.7 2.6 0.00 0.00 0.00 53 1012.0
20260506164030 52 172 0.9 1.7 0.00 0.00 0.00 44 1011.9
20260506163026 52 220 1.7 6.1 0.00 0.00 0.00 37 1012.0
20260506162042 52 192 2.6 7.0 0.00 0.00 0.00 36 1011.9
20260506161017 52 185 1.7 5.2 0.00 0.00 0.00 40 1011.9
20260506160033 51 178 1.7 3.5 0.00 0.00 0.00 47 1012.0
20260506155048 51 155 0.9 2.6 0.00 0.00 0.00 46 1012.0
20260506154043 51 100 4.3 8.7 0.00 0.00 0.00 46 1012.0
20260506153018 51 144 2.6 7.0 0.00 0.00 0.00 46 1012.1
20260506152053 51 137 1.7 6.1 0.00 0.00 0.00 45 1012.2
20260506151028 52 126 2.6 5.2 0.00 0.00 0.00 44 1012.1
20260506150023 54 199 0.9 2.6 0.00 0.00 0.00 33 1012.3
20260506145018 55 210 2.6 5.2 0.00 0.00 0.00 32 1012.3
20260506144034 55 213 1.7 6.1 0.00 0.00 0.00 33 1012.4
20260506143029 55 187 1.7 3.5 0.00 0.00 0.00 33 1012.4
20260506142024 53 215 2.6 3.5 0.00 0.00 0.00 34 1012.6
20260506141020 53 232 3.5 7.0 0.00 0.00 0.00 34 1012.7
20260506140015 53 255 5.2 9.6 0.00 0.00 0.00 35 1012.8
20260506135030 53 239 4.3 7.8 0.00 0.00 0.00 34 1012.8
20260506134026 53 213 2.6 3.5 0.00 0.00 0.00 35 1012.8
20260506133021 55 206 3.5 7.8 0.00 0.00 0.00 33 1012.8
20260506132017 53 197 2.6 6.1 0.00 0.00 0.00 34 1013.0
20260506131032 55 207 2.6 7.8 0.00 0.00 0.00 33 1013.1
20260506130047 53 254 3.5 7.0 0.00 0.00 0.00 32 1012.9
20260506125022 52 241 3.5 6.1 0.00 0.00 0.00 32 1013.0
20260506124017 54 242 3.5 7.0 0.00 0.00 0.00 31 1013.0
20260506123032 53 253 4.3 8.7 0.00 0.00 0.00 32 1013.0
20260506122028 52 248 5.2 9.6 0.00 0.00 0.00 32 1012.8
20260506121024 54 230 3.5 7.8 0.00 0.00 0.00 31 1012.8
20260506120018 51 250 2.6 7.8 0.00 0.00 0.00 32 1013.0
20260506115034 52 252 3.5 7.0 0.00 0.00 0.00 31 1013.0
20260506114029 50 231 0.9 3.5 0.00 0.00 0.00 31 1013.1
20260506113024 50 244 2.6 7.0 0.00 0.00 0.00 32 1013.2
20260506112019 52 252 5.2 8.7 0.00 0.00 0.00 32 1013.2
20260506111035 51 252 3.5 6.1 0.00 0.00 0.00 33 1013.2
20260506110031 51 239 2.6 7.8 0.00 0.00 0.00 32 1013.3
20260506105045 51 252 4.3 7.0 0.00 0.00 0.00 35 1013.3
20260506104020 49 254 4.3 7.0 0.00 0.00 0.00 35 1013.4
20260506103016 50 233 3.5 7.0 0.00 0.00 0.00 34 1013.4
20260506102031 51 260 3.5 7.0 0.00 0.00 0.00 34 1013.4
20260506101026 48 258 4.3 7.8 0.00 0.00 0.00 35 1013.6
20260506100022 49 217 2.6 5.2 0.00 0.00 0.00 33 1013.5
20260506095038 48 242 2.6 6.1 0.00 0.00 0.00 34 1013.6
20260506094053 50 215 1.7 3.5 0.00 0.00 0.00 35 1013.6
20260506093109 50 244 2.6 6.1 0.00 0.00 0.00 35 1013.6
20260506092024 48 206 0.9 2.6 0.00 0.00 0.00 38 1013.8
20260506091018 50 252 4.3 7.0 0.00 0.00 0.00 38 1013.7
20260506090034 50 168 0.9 2.6 0.00 0.00 0.00 37 1013.6
20260506085030 50 170 1.7 6.1 0.00 0.00 0.00 37 1013.8
20260506084025 49 214 2.6 6.1 0.00 0.00 0.00 36 1013.9
20260506083039 49 237 1.7 5.2 0.00 0.00 0.00 38 1014.0
20260506082041 49 166 1.7 5.2 0.00 0.00 0.00 38 1014.0
20260506081031 49 148 0.9 3.5 0.00 0.00 0.00 41 1013.9
20260506073032 46 218 1.7 3.5 0.00 0.00 0.00 44 1014.1
20260506072028 46 242 1.7 2.6 0.00 0.00 0.00 44 1014.0
20260506071022 47 190 0.9 2.6 0.00 0.00 0.00 43 1014.0